Location: Newark
(49.8348°N, 24.0280°E)
Time: 21:04:39
(UTC+00:00)

Explorer 7 - Pass Details

Date: 19 January 2020
Orbit: 485 x 679 km, 50.3° (Epoch: 23 February)

Event Time Altitude Azimuth Distance (km) Brightness Sun altitude
Rises 04:45:38 0° 285° (WNW) 2,629 - -13.7°
Reaches altitude 10° 04:47:52 10° 277° (W) 1,766 - -13.4°
Exits shadow 04:49:17 20° 267° (W) 1,275 8.1 -13.2°
Maximum altitude 04:51:36 38° 209° (SSW) 836 7.6 -12.8°
Drops below altitude 10° 04:55:33 10° 141° (SE) 1,865 10.4 -12.2°
Sets 04:57:59 0° 133° (SE) 2,798 11.7 -11.8°
